STARLINK-30360, 57776

Orbit data source: Space-Track

STARLINK-30360, 57776 is a payload satellite in LEO that was launched on Mon, 04 Sep 2023 UTC via an FALCON 9 launch vehicle from the Air Force Eastern Test Range (AFETR). Payload-class satellites include a variety of spacecraft equipped with specific instruments for various scientific and technological missions. These include communications satellites like Starlink; space stations such as the ISS; scientific satellites like the Hubble; Earth observation satellites from companies like Planet Labs, Umbra, and HawkEye 360; GPS; miniature CubeSats for education and research; and military/defense satellites.

Loading next visibility...
Identifier
57776, 2023-134F
Orbit
LEO
Last TLE update
7 hours ago
Origin
Manufacturer
SpaceX/Seattle
Mission
Operational Commercial Communications
Bus & Motor
STARLINK V2M, Unknown motor
Mass
730 kg wet, ~700 kg dry
Launch date (UTC)
2023-09-04 (2 years ago)
Launch vehicle
FALCON 9
Launch site
Air Force Eastern Test Range (AFETR)
Object type
Payload
Rocket body
Debris
Shape & HBR
Box + 2 Pan, 29 m
Radar Cross Section
33.884 m², Large (>1 m²)

Expand to show TLE details & history

TLE from 7 hours ago
0 STARLINK-30360
1 57776U 23134F   25151.12412221 -.00001066  00000-0 -63817-4 0  9998
2 57776  43.0037 293.0979 0001042 271.3448  88.7275 15.02544924 96802
Epoch: 2025-05-31T02:58Z
TLE epoch observation values (Epoch: 2025-05-31T02:58:44.158Z)
Latitude
-0.00004°
Longitude
-0.45515°
Altitude
558.814 km
Speed
7.584 km/s
True Right ascension
19h 32m 23s
True Declination
0° 00' 00"
Sunlit
Object was in full shadow at epoch
Visualization orbit readout
Latitude
6.10102°
Longitude
171.38304°
Altitude
558.399 km
Speed
7.584 km/s
Apparent Right ascension
07h 17m 48s
Apparent Declination
-15° 51' 60"
Sunlit
Object is in daylight
Visualization observer readout
Local Sidereal Time
19:43:16
Azimuth
14.799° NNE
Elevation
-65.319°
Doppler factor
1
Orbital elements
Apogee altitude
561.698 km
Perigee altitude
560.252 km
Semi-major axis
6,939.112 km
Eccentricity
0.0001
Inclination
43.0037°
RAAN
293.0979°
Arg. of periapsis
271.3448°
True anomaly
Unknown
Mean anomaly
88.7275°
Eccentric anomaly
Unknown
Mean motion
3.7548 °/min
Orbital period
95.88 mins
BSTAR
-0.000063817
Loading maneuver chart data...
Loading SW <> Apogee altitude chart data...
Loading historical data...
Loading historical data...
Loading historical data...
Loading historical data...
Loading historical data...
Loading historical data...
Loading historical data...

STARLINK-30360 Visibility forecast

Observer location: undefined°, undefined°

Span
Click to sort rows by Start time (UTC) header in descending order
Start Az.
Max El. time (UTC)
Max El. Az.
Max El.
End time (UTC)
End Az.
7 mins2025-05-31 12:45:06.078Z214.231° SW2025-05-31 12:48:06.078Z158.299° S31.591°2025-05-31 12:52:06.078Z82.038° E
6 mins2025-05-31 14:26:06.078Z264.543° W2025-05-31 14:29:06.078Z14.269° NNE43.142°2025-05-31 14:32:06.078Z69.626° E
6 mins2025-05-31 16:07:06.078Z291.029° WNW2025-05-31 16:10:06.078Z23.261° NE39.493°2025-05-31 16:13:06.078Z81.362° E
6 mins2025-05-31 17:48:06.078Z282.832° WNW2025-05-31 17:51:06.078Z153.423° SSE41.843°2025-05-31 17:54:06.078Z119.725° SE
4 mins2025-05-31 19:29:06.078Z247.622° W2025-05-31 19:31:06.078Z212.811° SW17.254°2025-05-31 19:33:06.078Z180.982° SSW
|